Location: Góry Miechowskie
(50.3599°N, 20.1803°E)
Time: 07:54:30
(UTC+00:00)

A-11 Canister half - Pass Details

Date: 19 September 2024
Orbit: 1515 x 1684 km, 47.2° (Epoch: 05 October)

Event Time Altitude Azimuth Distance (km) Brightness Sun altitude
Rises 16:55:35 0° 237° (WSW) 4,748 12.5 -2.8°
Reaches altitude 10° 16:58:45 10° 233° (SW) 3,744 11.8 -3.3°
Maximum altitude 17:07:54 59° 158° (SSE) 1,732 9.2 -4.7°
Drops below altitude 10° 17:16:54 10° 82° (E) 3,679 10.4 -6.2°
Enters shadow 17:18:24 - 80° (E) 4,160 10.7 -6.4°
Sets 17:19:58 0° 79° (E) 4,661 - -6.6°
